Simultaneous Nadir Overpasses (SNOs) Predictions

Prediction of SNOs between AQUA and TERRA Satellite Orbit:

Table of predicted SNOs for the next 14.0 days since TLE Epoch: 12/24/2022
Index Date (AQUA) Time (AQUA) Lat,Lon (AQUA) SZA (AQUA ) Date (TERRA) Time (TERRA) Lat,Lon (TERRA) SZA (TERRA ) Distance(km) Time Diff (sec)
1 12/29/2022 06:31:14 72.99, 79.82 96.14 12/29/2022 06:32:19 72.96, 82.49 96.09 87.03 65
2 12/29/2022 07:20:38 -72.93,-112.43 83.92 12/29/2022 07:21:44 -72.88,-109.99 83.99 79.70 66
3 12/29/2022 08:10:01 72.76, 55.56 95.90 12/29/2022 08:11:09 72.72, 57.36 95.85 59.35 68
4 12/29/2022 08:59:25 -72.71,-136.69 84.16 12/29/2022 09:00:34 -72.65,-135.13 84.23 52.22 69
5 12/29/2022 09:48:49 72.58, 31.19 95.71 12/29/2022 09:49:58 72.54, 32.33 95.66 38.25 69
6 12/29/2022 10:38:13 -72.53,-161.07 84.35 12/29/2022 10:39:23 -72.47,-160.15 84.42 31.43 70
7 12/29/2022 11:27:37 72.40, 6.81 95.53 12/29/2022 11:28:48 72.30, 7.21 95.42 17.43 71
8 12/29/2022 12:17:00 -72.30, 174.64 84.59 12/29/2022 12:18:12 -72.29, 174.83 84.60 6.41 72
9 12/29/2022 13:06:25 72.23, -17.58 95.34 12/29/2022 13:07:35 72.23, -17.62 95.34 1.31 70
10 12/29/2022 13:55:50 -72.23, 150.06 84.66 12/29/2022 13:56:59 -72.21, 150.01 84.68 2.56 69
11 12/29/2022 14:45:16 72.21, -42.26 95.32 12/29/2022 14:46:21 72.21, -42.35 95.32 2.85 65
12 12/29/2022 15:34:42 -72.26, 125.28 84.63 12/29/2022 15:35:44 -72.24, 125.37 84.65 3.74 62
13 12/29/2022 16:24:08 72.24, -67.04 95.35 12/29/2022 16:25:06 72.24, -66.98 95.35 2.12 58
14 12/29/2022 17:13:33 -72.25, 100.60 84.65 12/29/2022 17:14:30 -72.22, 100.64 84.68 2.94 57
15 12/29/2022 18:02:59 72.23, -91.72 95.33 12/29/2022 18:03:52 72.22, -91.71 95.32 0.94 53
16 12/29/2022 18:52:24 -72.23, 75.92 84.67 12/29/2022 18:53:16 -72.20, 75.91 84.70 2.98 52
17 12/29/2022 19:41:50 72.21,-116.40 95.31 12/29/2022 19:42:38 72.20,-116.44 95.30 1.68 48
18 12/29/2022 20:31:15 -72.21, 51.24 84.70 12/29/2022 20:32:01 -72.23, 51.28 84.68 2.95 46
19 12/29/2022 21:20:41 72.19,-141.08 95.29 12/29/2022 21:21:24 72.18,-141.16 95.27 3.21 43
20 12/29/2022 22:10:06 -72.19, 26.56 84.72 12/29/2022 22:10:47 -72.21, 26.55 84.70 2.13 41
21 12/29/2022 22:59:33 72.23,-165.86 95.32 12/29/2022 23:00:09 72.21,-165.80 95.30 3.02 36
22 12/29/2022 23:48:57 -72.18, 1.88 84.74 12/29/2022 23:49:33 -72.19, 1.82 84.73 2.42 36
23 12/30/2022 00:38:24 72.21, 169.46 95.30 12/30/2022 00:38:55 72.19, 169.47 95.27 2.60 31
24 12/30/2022 01:27:49 -72.21, -22.90 84.71 12/30/2022 01:28:18 -72.22, -22.81 84.70 3.44 29
25 12/30/2022 02:17:15 72.19, 144.77 95.27 12/30/2022 02:17:41 72.16, 144.75 95.25 3.14 26
26 12/30/2022 03:06:40 -72.19, -47.58 84.73 12/30/2022 03:07:04 -72.20, -47.54 84.72 1.81 24
27 12/30/2022 03:56:06 72.17, 120.09 95.25 12/30/2022 03:56:26 72.20, 120.11 95.27 2.63 20
28 12/30/2022 04:45:31 -72.18, -72.27 84.75 12/30/2022 04:45:50 -72.18, -72.27 84.75 0.41 19
29 12/30/2022 05:34:57 72.16, 95.41 95.23 12/30/2022 05:35:12 72.18, 95.38 95.25 2.31 15
30 12/30/2022 06:24:22 -72.16, -96.95 84.78 12/30/2022 06:24:36 -72.16, -96.99 84.78 1.59 14
31 12/30/2022 07:13:48 72.14, 70.73 95.21 12/30/2022 07:13:58 72.15, 70.65 95.22 3.04 10
32 12/30/2022 08:03:13 -72.14,-121.63 84.80 12/30/2022 08:03:22 -72.14,-121.72 84.80 3.22 9
33 12/30/2022 08:52:40 72.18, 45.95 95.24 12/30/2022 08:52:43 72.19, 46.02 95.25 2.65 3
34 12/30/2022 09:42:05 -72.18,-146.41 84.77 12/30/2022 09:42:07 -72.17,-146.36 84.77 1.95 2
35 12/30/2022 10:31:31 72.16, 21.27 95.22 12/30/2022 10:31:29 72.16, 21.29 95.22 1.06 2
36 12/30/2022 11:20:56 -72.16,-171.09 84.79 12/30/2022 11:20:53 -72.15,-171.08 84.80 1.38 3
37 12/30/2022 12:10:22 72.14, -3.41 95.20 12/30/2022 12:10:15 72.14, -3.44 95.20 0.85 7
38 12/30/2022 12:59:47 -72.14, 164.23 84.81 12/30/2022 12:59:39 -72.13, 164.19 84.83 2.34 8
39 12/30/2022 13:49:13 72.12, -28.09 95.17 12/30/2022 13:49:01 72.12, -28.16 95.17 2.41 12
40 12/30/2022 14:38:38 -72.13, 139.55 84.83 12/30/2022 14:38:24 -72.16, 139.55 84.80 3.65 14
41 12/30/2022 15:28:05 72.16, -52.87 95.21 12/30/2022 15:27:46 72.15, -52.80 95.20 2.61 19
42 12/30/2022 16:17:30 -72.16, 114.77 84.80 12/30/2022 16:17:10 -72.14, 114.82 84.82 3.33 20
43 12/30/2022 17:06:56 72.14, -77.55 95.18 12/30/2022 17:06:32 72.13, -77.53 95.17 1.49 24
44 12/30/2022 17:56:21 -72.14, 90.09 84.82 12/30/2022 17:55:56 -72.12, 90.10 84.85 3.25 25
45 12/30/2022 18:45:47 72.12,-102.24 95.16 12/30/2022 18:45:18 72.11,-102.26 95.15 1.78 29
46 12/30/2022 19:35:12 -72.13, 65.41 84.84 12/30/2022 19:34:41 -72.15, 65.46 84.82 2.96 31
47 12/30/2022 20:24:38 72.11,-126.92 95.14 12/30/2022 20:24:04 72.09,-126.98 95.12 3.10 34
48 12/30/2022 21:14:03 -72.11, 40.72 84.87 12/30/2022 21:13:27 -72.13, 40.73 84.85 1.79 36
49 12/30/2022 22:03:28 72.09,-151.60 95.12 12/30/2022 22:02:48 72.12,-151.62 95.15 3.38 40
50 12/30/2022 22:52:53 -72.09, 16.04 84.89 12/30/2022 22:52:12 -72.10, 16.00 84.88 1.75 41
51 12/30/2022 23:42:20 72.13,-176.38 95.15 12/30/2022 23:41:34 72.10,-176.35 95.12 3.32 46
52 12/31/2022 00:31:44 -72.08, -8.64 84.91 12/31/2022 00:30:58 -72.08, -8.72 84.90 2.89 46
53 12/31/2022 01:21:11 72.11, 158.94 95.13 12/31/2022 01:20:19 72.13, 159.02 95.15 3.62 52
54 12/31/2022 02:10:36 -72.11, -33.42 84.88 12/31/2022 02:09:43 -72.11, -33.36 84.88 2.13 53
55 12/31/2022 03:00:02 72.09, 134.26 95.10 12/31/2022 02:59:05 72.11, 134.29 95.12 2.18 57
56 12/31/2022 03:49:27 -72.09, -58.10 84.90 12/31/2022 03:48:29 -72.09, -58.09 84.90 0.58 58
57 12/31/2022 04:38:53 72.08, 109.57 95.08 12/31/2022 04:37:51 72.09, 109.56 95.10 1.37 62
58 12/31/2022 05:28:18 -72.08, -82.78 84.92 12/31/2022 05:27:15 -72.07, -82.81 84.93 1.25 63
59 12/31/2022 06:17:44 72.06, 84.89 95.06 12/31/2022 06:16:37 72.07, 84.83 95.07 2.11 67
60 12/31/2022 07:07:09 -72.06,-107.47 84.95 12/31/2022 07:06:01 -72.05,-107.54 84.96 2.87 68
61 12/31/2022 07:56:35 72.04, 60.21 95.04 12/31/2022 07:55:23 72.04, 60.11 95.04 3.54 72
62 12/31/2022 08:46:00 -72.04,-132.15 84.97 12/31/2022 08:44:47 -72.03,-132.27 84.98 4.51 73
63 12/31/2022 09:35:23 71.86, 35.81 94.85 12/31/2022 09:34:12 71.86, 35.10 94.86 24.56 71
64 12/31/2022 10:24:47 -71.81,-156.46 85.21 12/31/2022 10:23:36 -71.84,-157.28 85.17 28.58 71
65 12/31/2022 11:14:10 71.63, 11.49 94.61 12/31/2022 11:13:01 71.68, 10.10 94.67 49.12 69
66 12/31/2022 12:03:35 -71.63, 179.13 85.39 12/31/2022 12:02:26 -71.61, 177.64 85.41 52.61 69
67 12/31/2022 12:52:58 71.45, -12.92 94.42 12/31/2022 12:51:51 71.44, -14.99 94.43 73.15 67
68 12/31/2022 13:42:22 -71.40, 154.81 85.63 12/31/2022 13:41:15 -71.42, 152.64 85.59 76.78 67
69 12/31/2022 14:31:45 71.22, -37.25 94.18 12/31/2022 14:30:40 71.25, -39.97 94.24 97.52 65



Historial Predications of SNOs between AQUA and TERRA
